COSMOS 970 DEB, 64981

Orbit data source: Space-Track

COSMOS 970 DEB, 64981 is space debris in LEO originally from a launch on Wed, 21 Dec 1977 UTC launched from the Tyuratam Missile And Space Complex (TTMTR). Debris objects in space refer to the collection of defunct objects orbiting the Earth. Examples of debris include non-operational satellites, rocket bodies, and fragments generated from explosions, collisions, or faulty payload assembly.

Loading next visibility...
Identifier
64981, 1977-121CS
Orbit
LEO
Country
Flag of CISCIS
Related business
Manufacturer
Unknown
Mission
Spacecraft
Bus & Motor
Unknown
Mass
Unknown
Launch date (UTC)
1977-12-21 (48 years ago)
Launch vehicle
Unknown
Launch site
Tyuratam Missile And Space Complex (TTMTR)
Object type
Payload
Rocket body
Debris
Shape & HBR
Unknown shape, 0.1 m
Radar Cross Section
Small (<0.1 m²)

Expand to show TLE details & history
Last TLE update: 6 days ago

TLE from 6 days ago
0 COSMOS 970 DEB
1 64981U 77121CS  26165.66730438 -.00000029  00000-0  61884-4 0  9996
2 64981  65.8476 311.2909 0135910 252.0946 106.5250 13.58627485 86415
Epoch: 2026-06-14T16:00Z
TLE epoch observation values (Epoch: 2026-06-14T16:00:55.098Z)
Latitude
0.00001°
Longitude
168.09658°
Altitude
1,072.59 km
Speed
7.301 km/s
True Right ascension
20h 45m 09s
True Declination
0° 00' 00"
Sunlit
Object was in full shadow at epoch
Visualization orbit readout
Latitude
Unknown
Longitude
Unknown
Altitude
Unknown
Speed
Unknown
Apparent Right ascension
Unknown
Apparent Declination
Unknown
Sunlit
N/A
Visualization observer readout
Local Sidereal Time
07:16:34
Azimuth
Unknown
Elevation
Unknown
Doppler factor
Unknown
Orbital elements
Apogee altitude
1,140.02 km
Perigee altitude
938.402 km
Semi-major axis
7,417.348 km
Eccentricity
0.01359
Inclination
65.8476°
RAAN
311.2909°
Arg. of periapsis
252.0946°
True anomaly
108.01074°
Mean anomaly
106.525°
Eccentric anomaly
107.26861°
Mean motion
3.39758 °/min
Orbital period
105.96 mins
BSTAR
0.000061884
Loading maneuver chart data...
Computing Atmospheric mass density...
Loading historical data...
Loading historical data...
Loading historical data...
Loading historical data...
Loading historical data...
Loading historical data...
Loading historical data...

Documentation

Showing up to 5 results
|